Location: Tierra del Sol
(32.6128°N, 116.3319°W)
Time: 02:15:37
(UTC-07:00)

N. Korean satellite - Pass Details

Date: 08 October 2017
Orbit: 459 x 517 km, 97.2° (Epoch: 17 October)

Event Time Altitude Azimuth Distance (km) Brightness Sun altitude
Rises 18:41:44 0° 160° (SSE) 2,583 10.1 -5.3°
Reaches altitude 10° 18:43:51 10° 156° (SSE) 1,695 9.1 -5.7°
Maximum altitude 18:47:26 59° 77° (ENE) 575 6.6 -6.5°
Drops below altitude 10° 18:50:59 10° 357° (N) 1,674 9.3 -7.2°
Sets 18:53:03 0° 354° (N) 2,547 10.3 -7.7°
